Printer-friendly version

IAU Minor Planet Center

Minor Planet Center

MPEC 2009-U96 : 2009 UV19

The following Minor Planet Electronic Circular may be linked-to from your own Web pages, but must not otherwise be redistributed electronically.


Read MPEC 2009-U95 Read MPEC 2009-U97


M.P.E.C. 2009-U96                                Issued 2009 Oct. 25, 22:41 UT

     The Minor Planet Electronic Circulars contain information on unusual
         minor planets and routine data on comets.  They are published
   on behalf of Commission 20 of the International Astronomical Union by the
          Minor Planet Center, Smithsonian Astrophysical Observatory,
                          Cambridge, MA 02138, U.S.A.

             Prepared using the Tamkin Foundation Computer Network

                              MPC@CFA.HARVARD.EDU
          URL http://www.cfa.harvard.edu/iau/mpc.html  ISSN 1523-6714

                                   2009 UV19

Observations:
     K09U19V* C2009 10 24.30722 01 46 29.17 +03 08 12.8          20.6 V EU096G96
     K09U19V  C2009 10 24.31522 01 46 29.64 +03 08 31.1          21.2 V EU096G96
     K09U19V  C2009 10 24.32332 01 46 30.10 +03 08 50.1          21.9 V EU096G96
     K09U19V  C2009 10 24.33131 01 46 30.54 +03 09 08.0          21.2 V EU096G96
     K09U19V  C2009 10 24.37346 01 46 33.06 +03 10 42.8          21.4 V EU096G96
     K09U19V  C2009 10 24.37432 01 46 33.13 +03 10 45.3          21.6 V EU096G96
     K09U19V  C2009 10 24.37517 01 46 33.16 +03 10 47.1          21.5 V EU096G96
     K09U19V  C2009 10 24.37595 01 46 33.24 +03 10 48.9          21.1 V EU096G96
     K09U19V  C2009 10 24.37930 01 46 33.25 +03 10 54.9          20.3 R EU096H01
     K09U19V  C2009 10 24.38600 01 46 33.69 +03 11 10.0          20.4 R EU096H01
     K09U19V  C2009 10 24.39313 01 46 34.14 +03 11 25.9          20.3 R EU096H01
     K09U19V  C2009 10 25.18307 01 47 40.89 +03 40 33.8          22.0 V EU096G96
     K09U19V  C2009 10 25.18381 01 47 40.99 +03 40 35.0          21.8 V EU096G96
     K09U19V  C2009 10 25.18454 01 47 41.00 +03 40 37.0          21.5 V EU096G96
     K09U19V  C2009 10 25.18528 01 47 41.09 +03 40 38.7          21.7 V EU096G96
     K09U19V  C2009 10 25.22183 01 47 42.94 +03 41 56.7          20.6 R EU096H01
     K09U19V  C2009 10 25.22868 01 47 43.32 +03 42 11.5          20.5 R EU096H01
     K09U19V  C2009 10 25.23613 01 47 43.73 +03 42 27.6          20.8 R EU096H01
     K09U19V  C2009 10 25.42226 01 47 54.24 +03 49 05.6                 EU096291
     K09U19V  C2009 10 25.42623 01 47 54.51 +03 49 14.4                 EU096291
     K09U19V HC2009 10 25.43020 01 47 54.77 +03 49 21.7                 EU096291

Observer details:
291 LPL/Spacewatch II.  Observer T. H. Bressi.  1.8-m f/2.7 reflector + CCD.
G96 Mt. Lemmon Survey.  Observer A. Boattini.  Measurers E. C. Beshore,
    A. Boattini, G. J. Garradd, A. R. Gibbs, A. D. Grauer, R. E. Hill,
    R. A. Kowalski, S. M. Larson, R. H. McNaught.  1.5-m reflector + CCD.
H01 Magdalena Ridge Observatory, Socorro.  Observers W. H. Ryan, E. V. Ryan.
    Measurer W. H. Ryan.  2.4-m f/8.9 reflector + CCD.

Orbital elements:
2009 UV19                                                Earth MOID = 0.0299 AU
Epoch 2010 Jan. 4.0 TT = JDT 2455200.5                  MPC
M  53.02134              (2000.0)            P               Q
n   0.44282110     Peri.  280.19466     +0.92974936     +0.36717562
a   1.7047100      Node    58.26860     -0.32396937     +0.85111727
e   0.4130526      Incl.    1.84295     -0.17495705     +0.37520855
P   2.23           H   24.8           G   0.15           U   8
Residuals in seconds of arc
091024 G96  0.1+  0.2-    091024 G96  0.3+  0.0     091025 G96  0.3+  0.0
091024 G96  0.2+  0.1-    091024 H01  0.3-  0.1+    091025 H01  0.3+  0.3+
091024 G96  0.0   0.5+    091024 H01  0.1+  0.0     091025 H01  0.3+  0.3+
091024 G96  0.3-  0.2+    091024 H01  0.1+  0.1-    091025 H01  0.3+  0.4+
091024 G96  0.1-  0.5-    091025 G96  0.7-  0.1-    091025 291  0.4-  0.0
091024 G96  0.1+  0.1+    091025 G96  0.1+  0.5-    091025 291  0.0   0.5+
091024 G96  0.2-  0.0     091025 G96  0.4-  0.1-    091025 291  0.3+  0.6-

Ephemeris:
2009 UV19                a,e,i = 1.70, 0.41, 2                   q = 1.0006
Date    TT    R. A. (2000) Decl.     Delta      r     Elong.  Phase     V
2009 10 26    01 48.66   +04 09.6    0.142    1.134   171.2     7.7    21.4
2009 10 27    01 49.84   +04 42.7    0.147    1.139   171.1     7.7    21.5
2009 10 28    01 50.95   +05 13.8    0.152    1.144   171.0     7.8    21.6
2009 10 29    01 52.00   +05 43.1    0.157    1.149   170.7     8.0    21.6
2009 10 30    01 53.00   +06 10.8    0.163    1.154   170.4     8.2    21.7
2009 10 31    01 53.95   +06 37.0    0.168    1.159   170.1     8.5    21.8
2009 11 01    01 54.86   +07 01.8    0.174    1.164   169.6     8.8    21.9
2009 11 02    01 55.74   +07 25.3    0.180    1.169   169.1     9.2    22.0
2009 11 03    01 56.58   +07 47.6    0.185    1.174   168.6     9.6    22.1
2009 11 04    01 57.39   +08 08.8    0.191    1.180   168.0    10.0    22.2
2009 11 05    01 58.18   +08 29.0    0.197    1.185   167.4    10.5    22.3

Timothy B. Spahr             (C) Copyright 2009 MPC           M.P.E.C. 2009-U96

Read MPEC 2009-U95 Read MPEC 2009-U97

Valid HTML 4.01!